2021-022X (47953 NORAD) Tracking and Keplerian Element Data

This shows tracking and keplerian element data for the satellite.

Feedback or suggestion? Click here.




ElementValue
Catalog47953
Name2021-022X
Epoch Orbit413
Epoch Day110.97858116
Epoch Year2021
RAAN14.2752
Inclination97.5601
Eccentricity0.0021986
Argument of Perigee144.0904
Mean Anonmoly338.2943
Mean Motion15.05604879
Decay Rate1.52E-06
L11 47953U 21022X 21110.97858116 .00000152 00000-0 14780-4 0 9997
L22 47953 97.5601 14.2752 0021986 144.0904 338.2943 15.05604879 4132



Live tracking and technical data element details for 2021-022X (NORAD 47953). 2021-022X can be tracked NOW for your location showing map with azimuth and elevation plus other details from your city location.







IsCatalogInMostPopularTable: catalog: 47953, numindb: 105
Update: records affected: 1



GetName: 47953 2021-022X

Hit Count: updated at: Sun, 28 May 2023 18:47:26 GMT